,,PA_Meas_PMT16A,,PR_Meas_QMR101_102,,RH_Meas_QMH101,,SR_Meas_QMS101,,TA_Meas_QMH101,,GenWind,,GenWind,
time,status,PA,status,PR,status,RH,status,SR,status,TA,status,DirAvg,status,SpdAvg,
2013-01-30, 00:00:04,VALID,920.1,VALID,0,VALID,96.3142,VALID,0,VALID,19.5273,VALID,115,VALID,0,
2013-01-30, 00:01:04,VALID,920.112,VALID,0,VALID,96.3447,VALID,0,VALID,19.5078,VALID,116,VALID,0,
2013-01-30, 00:02:04,VALID,920.143,VALID,0,VALID,96.3371,VALID,0,VALID,19.4883,VALID,116,VALID,0,
2013-01-30, 00:03:04,VALID,920.106,VALID,0,VALID,96.3447,VALID,0,VALID,19.4883,VALID,115,VALID,0,
2013-01-30, 00:04:04,VALID,920.093,VALID,0,VALID,96.3905,VALID,0,VALID,19.4868,VALID,116,VALID,0,
2013-01-30, 00:05:04,VALID,920.077,VALID,0,VALID,96.4286,VALID,0,VALID,19.5273,VALID,115,VALID,0,
2013-01-30, 00:06:04,VALID,920.102,VALID,0,VALID,96.4819,VALID,0,VALID,19.5273,VALID,116,VALID,0,
2013-01-30, 00:07:04,VALID,920.098,VALID,0,VALID,96.4896,VALID,0,VALID,19.5273,VALID,116,VALID,0,
2013-01-30, 00:08:04,VALID,920.091,VALID,0,VALID,96.4819,VALID,0,VALID,19.5273,VALID,116,VALID,0,
2013-01-30, 00:09:04,VALID,920.118,VALID,0,VALID,96.5277,VALID,0.107441,VALID,19.5273,VALID,116,VALID,0,
2013-01-30, 00:10:04,VALID,920.111,VALID,0,VALID,96.5048,VALID,0,VALID,19.5273,VALID,116,VALID,0,
2013-01-30, 00:11:04,VALID,920.149,VALID,0,VALID,96.5353,VALID,0,VALID,19.5663,VALID,115,VALID,0,
2013-01-30, 00:12:04,VALID,920.094,VALID,0,VALID,96.5582,VALID,0,VALID,19.5663,VALID,115,VALID,0,
2013-01-30, 00:13:04,VALID,920.11,VALID,0,VALID,96.5734,VALID,0.107441,VALID,19.5858,VALID,115,VALID,0,
2013-01-30, 00:14:04,VALID,920.094,VALID,0,VALID,96.5429,VALID,0.107441,VALID,19.5858,VALID,116,VALID,0,
2013-01-30, 00:15:04,VALID,920.088,VALID,0,VALID,96.5658,VALID,0.107441,VALID,19.5858,VALID,116,VALID,0,
2013-01-30, 00:16:04,VALID,920.092,VALID,0,VALID,96.5658,VALID,0,VALID,19.6248,VALID,116,VALID,0,
2013-01-30, 00:17:04,VALID,920.106,VALID,0,VALID,96.5658,VALID,0.107441,VALID,19.6443,VALID,115,VALID,0,
2013-01-30, 00:18:04,VALID,920.108,VALID,0,VALID,96.5811,VALID,0,VALID,19.6638,VALID,115,VALID,0,
2013-01-30, 00:19:04,VALID,920.103,VALID,0,VALID,96.5887,VALID,0,VALID,19.6833,VALID,116,VALID,0,
2013-01-30, 00:20:04,VALID,920.107,VALID,0,VALID,96.5658,VALID,0.107441,VALID,19.6818,VALID,116,VALID,0,
2013-01-30, 00:21:04,VALID,920.102,VALID,0,VALID,96.5582,VALID,0,VALID,19.7223,VALID,116,VALID,0,
2013-01-30, 00:22:04,VALID,920.097,VALID,0,VALID,96.5353,VALID,0.107441,VALID,19.7628,VALID,116,VALID,0,
2013-01-30, 00:23:04,VALID,920.081,VALID,0,VALID,96.4819,VALID,0,VALID,19.7418,VALID,115,VALID,0,
2013-01-30, 00:24:04,VALID,920.061,VALID,0,VALID,96.4515,VALID,0,VALID,19.7223,VALID,116,VALID,0,
2013-01-30, 00:25:04,VALID,920.043,VALID,0,VALID,96.421,VALID,0,VALID,19.7613,VALID,115,VALID,0,
2013-01-30, 00:26:04,VALID,920.03,VALID,0,VALID,96.3905,VALID,0.107441,VALID,19.7418,VALID,116,VALID,0,
2013-01-30, 00:27:04,VALID,920.02,VALID,0,VALID,96.36,VALID,0.107441,VALID,19.7208,VALID,116,VALID,0,
2013-01-30, 00:28:04,VALID,919.994,VALID,0,VALID,96.3219,VALID,0.107441,VALID,19.7613,VALID,116,VALID,0,
2013-01-30, 00:29:04,VALID,919.973,VALID,0,VALID,96.3295,VALID,0.107441,VALID,19.7613,VALID,115,VALID,0,
2013-01-30, 00:30:04,VALID,919.955,VALID,0,VALID,96.299,VALID,0.107441,VALID,19.7808,VALID,116,VALID,0,
2013-01-30, 00:31:04,VALID,919.964,VALID,0,VALID,96.2075,VALID,0,VALID,19.7208,VALID,116,VALID,0,
2013-01-30, 00:32:04,VALID,919.966,VALID,0,VALID,96.1846,VALID,0,VALID,19.7418,VALID,116,VALID,0,
2013-01-30, 00:33:04,VALID,919.943,VALID,0,VALID,96.1008,VALID,0,VALID,19.7223,VALID,115,VALID,0,
2013-01-30, 00:34:04,VALID,919.96,VALID,0,VALID,96.0093,VALID,0,VALID,19.7028,VALID,116,VALID,0,
2013-01-30, 00:35:04,VALID,919.945,VALID,0,VALID,96.0169,VALID,0,VALID,19.7028,VALID,115,VALID,0,
2013-01-30, 00:36:04,VALID,919.941,VALID,0,VALID,95.773,VALID,0,VALID,19.6443,VALID,116,VALID,0,
2013-01-30, 00:37:04,VALID,919.945,VALID,0,VALID,95.651,VALID,0.107441,VALID,19.5468,VALID,115,VALID,0,
2013-01-30, 00:38:04,VALID,919.903,VALID,0,VALID,95.7654,VALID,0.107441,VALID,19.5273,VALID,116,VALID,0,
2013-01-30, 00:39:04,VALID,919.9,VALID,0,VALID,95.7044,VALID,0,VALID,19.4493,VALID,115,VALID,0,
2013-01-30, 00:40:04,VALID,919.908,VALID,0,VALID,95.773,VALID,0,VALID,19.4103,VALID,116,VALID,0,
2013-01-30, 00:41:04,VALID,919.854,VALID,0,VALID,95.7882,VALID,0,VALID,19.3713,VALID,115,VALID,0,
2013-01-30, 00:42:04,VALID,919.865,VALID,0,VALID,95.895,VALID,0,VALID,19.3518,VALID,116,VALID,0,
2013-01-30, 00:43:04,VALID,919.877,VALID,0,VALID,96.055,VALID,0,VALID,19.3713,VALID,116,VALID,0,
2013-01-30, 00:44:04,VALID,919.843,VALID,0,VALID,96.1313,VALID,0,VALID,19.3698,VALID,116,VALID,0,
2013-01-30, 00:45:04,VALID,919.86,VALID,0,VALID,96.1846,VALID,0,VALID,19.4103,VALID,116,VALID,0,
2013-01-30, 00:46:04,VALID,919.8,VALID,0,VALID,96.2456,VALID,0,VALID,19.4088,VALID,115,VALID,0,
2013-01-30, 00:47:04,VALID,919.78,VALID,0,VALID,96.2304,VALID,0.107441,VALID,19.4493,VALID,115,VALID,0,
2013-01-30, 00:48:04,VALID,919.767,VALID,0,VALID,96.2837,VALID,0.107441,VALID,19.4493,VALID,116,VALID,0,
2013-01-30, 00:49:04,VALID,919.733,VALID,0,VALID,96.3219,VALID,0,VALID,19.4688,VALID,116,VALID,0,
2013-01-30, 00:50:04,VALID,919.741,VALID,0,VALID,96.3142,VALID,0.107441,VALID,19.4883,VALID,116,VALID,0,
2013-01-30, 00:51:04,VALID,919.752,VALID,0,VALID,96.2837,VALID,0,VALID,19.4688,VALID,116,VALID,0,
2013-01-30, 00:52:04,VALID,919.734,VALID,0,VALID,96.0169,VALID,0,VALID,19.4103,VALID,115,VALID,0,
2013-01-30, 00:53:04,VALID,919.716,VALID,0,VALID,96.0779,VALID,0,VALID,19.3518,VALID,116,VALID,0,
2013-01-30, 00:54:04,VALID,919.694,VALID,0,VALID,96.238,VALID,0,VALID,19.3908,VALID,115,VALID,0,
2013-01-30, 00:55:04,VALID,919.675,VALID,0,VALID,96.2151,VALID,0,VALID,19.3908,VALID,116,VALID,0,
2013-01-30, 00:56:04,VALID,919.684,VALID,0,VALID,96.2761,VALID,0.107441,VALID,19.3294,VALID,116,VALID,0,
2013-01-30, 00:57:04,VALID,919.695,VALID,0,VALID,96.2761,VALID,0,VALID,19.3923,VALID,115,VALID,0,
2013-01-30, 00:58:04,VALID,919.673,VALID,0,VALID,96.299,VALID,0,VALID,19.3713,VALID,116,VALID,0,
2013-01-30, 00:59:04,VALID,919.679,VALID,0,VALID,96.2761,VALID,0,VALID,19.3518,VALID,115,VALID,0,
2013-01-30, 01:00:04,VALID,919.666,VALID,0,VALID,96.2761,VALID,0.107441,VALID,19.3713,VALID,115,VALID,0,
2013-01-30, 01:01:04,VALID,919.667,VALID,0,VALID,96.3219,VALID,0,VALID,19.3294,VALID,115,VALID,0,
2013-01-30, 01:02:04,VALID,919.676,VALID,0,VALID,96.3371,VALID,0.107441,VALID,19.3923,VALID,116,VALID,0,
2013-01-30, 01:03:04,VALID,919.676,VALID,0,VALID,96.3447,VALID,0.107441,VALID,19.4118,VALID,115,VALID,0,
2013-01-30, 01:04:04,VALID,919.636,VALID,0,VALID,96.36,VALID,0,VALID,19.4118,VALID,115,VALID,0,
2013-01-30, 01:05:04,VALID,919.643,VALID,0,VALID,96.36,VALID,0,VALID,19.3908,VALID,116,VALID,0,
2013-01-30, 01:06:04,VALID,919.635,VALID,0,VALID,96.3981,VALID,0,VALID,19.4103,VALID,116,VALID,0,
2013-01-30, 01:07:04,VALID,919.611,VALID,0,VALID,96.3447,VALID,0.107441,VALID,19.3518,VALID,115,VALID,0,
2013-01-30, 01:08:04,VALID,919.62,VALID,0,VALID,96.0627,VALID,0,VALID,19.2753,VALID,116,VALID,0,
2013-01-30, 01:09:04,VALID,919.602,VALID,0,VALID,96.1389,VALID,0,VALID,19.2153,VALID,115,VALID,0,
2013-01-30, 01:10:04,VALID,919.6,VALID,0,VALID,96.2609,VALID,0,VALID,19.2363,VALID,116,VALID,0,
2013-01-30, 01:11:04,VALID,919.602,VALID,0,VALID,96.3142,VALID,0.107441,VALID,19.2363,VALID,115,VALID,0,
2013-01-30, 01:12:04,VALID,919.601,VALID,0,VALID,96.4133,VALID,0,VALID,19.2543,VALID,115,VALID,0,
2013-01-30, 01:13:04,VALID,919.627,VALID,0,VALID,96.4362,VALID,0,VALID,19.2738,VALID,115,VALID,0,
2013-01-30, 01:14:04,VALID,919.592,VALID,0,VALID,96.4972,VALID,0,VALID,19.2723,VALID,116,VALID,0,
2013-01-30, 01:15:04,VALID,919.59,VALID,0,VALID,96.4972,VALID,0,VALID,19.3128,VALID,115,VALID,0,
2013-01-30, 01:16:04,VALID,919.572,VALID,0,VALID,96.5506,VALID,0,VALID,19.3128,VALID,116,VALID,0,
2013-01-30, 01:17:04,VALID,919.549,VALID,0,VALID,96.5734,VALID,0,VALID,19.3518,VALID,115,VALID,0,
2013-01-30, 01:18:04,VALID,919.554,VALID,0,VALID,96.5963,VALID,0,VALID,19.3728,VALID,116,VALID,0,
2013-01-30, 01:19:04,VALID,919.566,VALID,0,VALID,96.6039,VALID,0,VALID,19.3713,VALID,115,VALID,0,
2013-01-30, 01:20:04,VALID,919.559,VALID,0,VALID,96.6115,VALID,0,VALID,19.3518,VALID,115,VALID,0,
2013-01-30, 01:21:04,VALID,919.57,VALID,0,VALID,96.6039,VALID,0,VALID,19.3713,VALID,115,VALID,0,
2013-01-30, 01:22:04,VALID,919.577,VALID,0,VALID,96.5887,VALID,0,VALID,19.3713,VALID,116,VALID,0,
2013-01-30, 01:23:04,VALID,919.596,VALID,0,VALID,96.6268,VALID,0.107441,VALID,19.4298,VALID,115,VALID,0,
2013-01-30, 01:24:04,VALID,919.608,VALID,0,VALID,96.6649,VALID,0,VALID,19.4883,VALID,116,VALID,0,
2013-01-30, 01:25:05,VALID,919.631,VALID,0,VALID,96.6725,VALID,0,VALID,19.4883,VALID,116,VALID,0,
2013-01-30, 01:26:05,VALID,919.629,VALID,0,VALID,96.6802,VALID,0,VALID,19.5273,VALID,116,VALID,0,
2013-01-30, 01:27:05,VALID,919.625,VALID,0,VALID,96.6954,VALID,0,VALID,19.5468,VALID,115,VALID,0,
2013-01-30, 01:28:05,VALID,919.623,VALID,0,VALID,96.6573,VALID,0,VALID,19.5678,VALID,115,VALID,0,
2013-01-30, 01:29:05,VALID,919.61,VALID,0,VALID,96.6725,VALID,0.107441,VALID,19.5468,VALID,115,VALID,0,
2013-01-30, 01:30:05,VALID,919.578,VALID,0,VALID,96.642,VALID,0,VALID,19.5273,VALID,116,VALID,0,
2013-01-30, 01:31:05,VALID,919.583,VALID,0,VALID,96.6497,VALID,0,VALID,19.5468,VALID,115,VALID,0,
2013-01-30, 01:32:05,VALID,919.573,VALID,0,VALID,96.6115,VALID,0,VALID,19.5273,VALID,116,VALID,0,
2013-01-30, 01:33:05,VALID,919.554,VALID,0,VALID,96.6192,VALID,0,VALID,19.5078,VALID,116,VALID,0,
2013-01-30, 01:34:05,VALID,919.55,VALID,0,VALID,96.5811,VALID,0,VALID,19.4883,VALID,116,VALID,0,
2013-01-30, 01:35:05,VALID,919.516,VALID,0,VALID,96.5963,VALID,0,VALID,19.4883,VALID,115,VALID,0,
2013-01-30, 01:36:05,VALID,919.516,VALID,0,VALID,96.5506,VALID,0,VALID,19.4883,VALID,116,VALID,0,
2013-01-30, 01:37:05,VALID,919.527,VALID,0,VALID,96.5582,VALID,0,VALID,19.5078,VALID,116,VALID,0,
2013-01-30, 01:38:05,VALID,919.532,VALID,0,VALID,96.5963,VALID,0,VALID,19.5273,VALID,115,VALID,0,
2013-01-30, 01:39:05,VALID,919.507,VALID,0,VALID,96.5811,VALID,0,VALID,19.5678,VALID,116,VALID,0,
2013-01-30, 01:40:05,VALID,919.51,VALID,0,VALID,96.6039,VALID,0,VALID,19.5468,VALID,116,VALID,0,
2013-01-30, 01:41:05,VALID,919.521,VALID,0,VALID,96.6039,VALID,0,VALID,19.5663,VALID,115,VALID,0,
2013-01-30, 01:42:05,VALID,919.523,VALID,0,VALID,96.5887,VALID,0,VALID,19.5678,VALID,116,VALID,0,
2013-01-30, 01:43:05,VALID,919.494,VALID,0,VALID,96.4667,VALID,0,VALID,19.4493,VALID,115,VALID,0,
2013-01-30, 01:44:05,VALID,919.456,VALID,0,VALID,96.299,VALID,0,VALID,19.3518,VALID,116,VALID,0,
2013-01-30, 01:45:05,VALID,919.463,VALID,0,VALID,96.1389,VALID,0,VALID,19.3143,VALID,115,VALID,0,
2013-01-30, 01:46:05,VALID,919.433,VALID,0,VALID,96.238,VALID,0,VALID,19.2753,VALID,115,VALID,0,
2013-01-30, 01:47:05,VALID,919.429,VALID,0,VALID,96.2914,VALID,0,VALID,19.2348,VALID,116,VALID,0,
2013-01-30, 01:48:05,VALID,919.418,VALID,0,VALID,96.3752,VALID,0,VALID,19.2348,VALID,115,VALID,0,
2013-01-30, 01:49:05,VALID,919.393,VALID,0,VALID,96.4057,VALID,0,VALID,19.2543,VALID,116,VALID,0,
2013-01-30, 01:50:05,VALID,919.376,VALID,0,VALID,96.4286,VALID,0,VALID,19.2348,VALID,115,VALID,0,
2013-01-30, 01:51:05,VALID,919.354,VALID,0,VALID,96.4667,VALID,0,VALID,19.2363,VALID,116,VALID,0,
2013-01-30, 01:52:05,VALID,919.325,VALID,0,VALID,96.5048,VALID,0,VALID,19.2543,VALID,116,VALID,0,
2013-01-30, 01:53:05,VALID,919.316,VALID,0,VALID,96.5506,VALID,0,VALID,19.2738,VALID,115,VALID,0,
2013-01-30, 01:54:05,VALID,919.324,VALID,0,VALID,96.5734,VALID,0,VALID,19.2738,VALID,115,VALID,0,
2013-01-30, 01:55:05,VALID,919.282,VALID,0,VALID,96.5506,VALID,0,VALID,19.2348,VALID,115,VALID,0,
2013-01-30, 01:56:05,VALID,919.272,VALID,0,VALID,96.5277,VALID,0,VALID,19.2348,VALID,115,VALID,0,
2013-01-30, 01:57:05,VALID,919.269,VALID,0,VALID,96.5277,VALID,0,VALID,19.2558,VALID,116,VALID,0,
2013-01-30, 01:58:05,VALID,919.259,VALID,0,VALID,96.5506,VALID,0,VALID,19.2348,VALID,115,VALID,0,
2013-01-30, 01:59:05,VALID,919.251,VALID,0,VALID,96.6039,VALID,0,VALID,19.2363,VALID,115,VALID,0,
2013-01-30, 02:00:05,VALID,919.237,VALID,0,VALID,96.5963,VALID,0,VALID,19.2348,VALID,116,VALID,0,
2013-01-30, 02:01:05,VALID,919.243,VALID,0,VALID,96.6192,VALID,0,VALID,19.2153,VALID,115,VALID,0,
2013-01-30, 02:02:05,VALID,919.256,VALID,0,VALID,96.6039,VALID,0,VALID,19.2153,VALID,115,VALID,0,
2013-01-30, 02:03:05,VALID,919.23,VALID,0,VALID,96.5887,VALID,0,VALID,19.1958,VALID,116,VALID,0,
2013-01-30, 02:04:05,VALID,919.228,VALID,0,VALID,96.5734,VALID,0,VALID,19.1568,VALID,115,VALID,0,
2013-01-30, 02:05:05,VALID,919.258,VALID,0,VALID,96.5506,VALID,0,VALID,19.1373,VALID,115,VALID,0,
2013-01-30, 02:06:05,VALID,919.269,VALID,0,VALID,96.5811,VALID,0,VALID,19.1583,VALID,116,VALID,0,
2013-01-30, 02:07:05,VALID,919.261,VALID,0,VALID,96.5811,VALID,0,VALID,19.1178,VALID,116,VALID,0,
2013-01-30, 02:08:05,VALID,919.221,VALID,0,VALID,96.5887,VALID,0,VALID,19.1178,VALID,115,VALID,0,
2013-01-30, 02:09:05,VALID,919.225,VALID,0,VALID,96.6192,VALID,0,VALID,19.1568,VALID,116,VALID,0,
2013-01-30, 02:10:05,VALID,919.225,VALID,0,VALID,96.6115,VALID,0,VALID,19.1583,VALID,115,VALID,0,
2013-01-30, 02:11:05,VALID,919.218,VALID,0,VALID,96.6268,VALID,0,VALID,19.1178,VALID,115,VALID,0,
2013-01-30, 02:12:05,VALID,919.217,VALID,0,VALID,96.6192,VALID,0,VALID,19.1193,VALID,116,VALID,0,
2013-01-30, 02:13:05,VALID,919.195,VALID,0,VALID,96.6497,VALID,0,VALID,19.1388,VALID,116,VALID,0,
2013-01-30, 02:14:05,VALID,919.229,VALID,0,VALID,96.6725,VALID,0,VALID,19.1193,VALID,116,VALID,0,
2013-01-30, 02:15:05,VALID,919.185,VALID,0,VALID,96.7335,VALID,0,VALID,19.1763,VALID,115,VALID,0,
2013-01-30, 02:16:05,VALID,919.185,VALID,0,VALID,96.7411,VALID,0,VALID,19.1568,VALID,116,VALID,0,
2013-01-30, 02:17:05,VALID,919.185,VALID,0,VALID,96.7488,VALID,0,VALID,19.1583,VALID,115,VALID,0,
2013-01-30, 02:18:05,VALID,919.182,VALID,0,VALID,96.7716,VALID,0.107441,VALID,19.1568,VALID,116,VALID,0,
2013-01-30, 02:19:05,VALID,919.173,VALID,0,VALID,96.7869,VALID,0.107441,VALID,19.1568,VALID,115,VALID,0,
2013-01-30, 02:20:05,VALID,919.145,VALID,0,VALID,96.7869,VALID,0,VALID,19.1373,VALID,115,VALID,0,
2013-01-30, 02:21:05,VALID,919.166,VALID,0,VALID,96.7945,VALID,0,VALID,19.0983,VALID,114,VALID,0,
2013-01-30, 02:22:05,VALID,919.167,VALID,0,VALID,96.7945,VALID,0,VALID,19.0983,VALID,114,VALID,0,
2013-01-30, 02:23:05,VALID,919.144,VALID,0,VALID,96.8174,VALID,0,VALID,19.0983,VALID,114,VALID,0,
2013-01-30, 02:24:05,VALID,919.139,VALID,0,VALID,96.8174,VALID,0,VALID,19.0788,VALID,114,VALID,0,
2013-01-30, 02:25:05,VALID,919.134,VALID,0,VALID,96.8326,VALID,0,VALID,19.0803,VALID,114,VALID,0,
2013-01-30, 02:26:05,VALID,919.162,VALID,0,VALID,96.8631,VALID,0,VALID,19.0998,VALID,114,VALID,0,
2013-01-30, 02:27:05,VALID,919.12,VALID,0,VALID,96.886,VALID,0,VALID,19.0998,VALID,114,VALID,0,
2013-01-30, 02:28:05,VALID,919.113,VALID,0,VALID,96.8936,VALID,0,VALID,19.0998,VALID,114,VALID,0,
2013-01-30, 02:29:05,VALID,919.113,VALID,0,VALID,96.8784,VALID,0,VALID,19.0998,VALID,114,VALID,0,
2013-01-30, 02:30:05,VALID,919.116,VALID,0,VALID,96.8403,VALID,0,VALID,19.0413,VALID,114,VALID,0,
2013-01-30, 02:31:05,VALID,919.085,VALID,0,VALID,96.8403,VALID,0,VALID,19.0008,VALID,114,VALID,0,
2013-01-30, 02:32:05,VALID,919.063,VALID,0,VALID,96.8403,VALID,0,VALID,19.0023,VALID,114,VALID,0,
2013-01-30, 02:33:05,VALID,919.079,VALID,0,VALID,96.825,VALID,0,VALID,18.9828,VALID,114,VALID,0,
2013-01-30, 02:34:05,VALID,919.068,VALID,0,VALID,96.8555,VALID,0,VALID,18.9814,VALID,114,VALID,0,
2013-01-30, 02:35:05,VALID,919.079,VALID,0,VALID,96.9012,VALID,0,VALID,19.0413,VALID,114,VALID,0,
2013-01-30, 02:36:05,VALID,919.056,VALID,0,VALID,96.9241,VALID,0,VALID,19.0998,VALID,114,VALID,0,
2013-01-30, 02:37:05,VALID,919.021,VALID,0,VALID,96.9546,VALID,0,VALID,19.1178,VALID,114,VALID,0,
2013-01-30, 02:38:05,VALID,919.031,VALID,0,VALID,96.9622,VALID,0,VALID,19.1388,VALID,114,VALID,0,
2013-01-30, 02:39:05,VALID,919.017,VALID,0,VALID,96.9546,VALID,0,VALID,19.1193,VALID,114,VALID,0,
2013-01-30, 02:40:05,VALID,918.999,VALID,0,VALID,96.9698,VALID,0,VALID,19.0593,VALID,114,VALID,0,
2013-01-30, 02:41:05,VALID,918.984,VALID,0,VALID,96.9546,VALID,0,VALID,19.0998,VALID,114,VALID,0,
2013-01-30, 02:42:05,VALID,918.978,VALID,0,VALID,96.9698,VALID,0,VALID,19.0983,VALID,114,VALID,0,
2013-01-30, 02:43:05,VALID,918.984,VALID,0,VALID,96.9851,VALID,0,VALID,19.0983,VALID,114,VALID,0,
2013-01-30, 02:44:05,VALID,918.945,VALID,0,VALID,96.9698,VALID,0,VALID,19.1193,VALID,114,VALID,0,
2013-01-30, 02:45:05,VALID,918.965,VALID,0,VALID,96.9851,VALID,0,VALID,19.0983,VALID,114,VALID,0,
2013-01-30, 02:46:05,VALID,918.94,VALID,0,VALID,96.9927,VALID,0,VALID,19.1193,VALID,114,VALID,0,
2013-01-30, 02:47:05,VALID,918.93,VALID,0,VALID,97.008,VALID,0,VALID,19.1178,VALID,114,VALID,0,
2013-01-30, 02:48:05,VALID,918.923,VALID,0,VALID,97.0003,VALID,0,VALID,19.0983,VALID,114,VALID,0,
2013-01-30, 02:49:05,VALID,918.895,VALID,0,VALID,96.9927,VALID,0,VALID,19.0998,VALID,114,VALID,0,
2013-01-30, 02:50:05,VALID,918.918,VALID,0,VALID,96.9927,VALID,0,VALID,19.0983,VALID,114,VALID,0,
2013-01-30, 02:51:05,VALID,918.926,VALID,0,VALID,97.008,VALID,0,VALID,19.0998,VALID,114,VALID,0,
2013-01-30, 02:52:05,VALID,918.943,VALID,0,VALID,97.0003,VALID,0,VALID,19.0998,VALID,114,VALID,0,
2013-01-30, 02:53:05,VALID,918.931,VALID,0,VALID,97.008,VALID,0,VALID,19.0998,VALID,114,VALID,0,
2013-01-30, 02:54:05,VALID,918.934,VALID,0,VALID,97.0003,VALID,0,VALID,19.0998,VALID,114,VALID,0,
2013-01-30, 02:55:05,VALID,918.922,VALID,0,VALID,97.0232,VALID,0,VALID,19.0593,VALID,114,VALID,0,
2013-01-30, 02:56:05,VALID,918.921,VALID,0,VALID,96.9927,VALID,0,VALID,19.0398,VALID,114,VALID,0,
2013-01-30, 02:57:05,VALID,918.913,VALID,0,VALID,97.0156,VALID,0.107441,VALID,19.0203,VALID,114,VALID,0,
2013-01-30, 02:58:05,VALID,918.919,VALID,0,VALID,97.0156,VALID,0,VALID,19.0203,VALID,114,VALID,0,
2013-01-30, 02:59:05,VALID,918.901,VALID,0,VALID,97.0232,VALID,0,VALID,19.0218,VALID,114,VALID,0,
2013-01-30, 03:00:05,VALID,918.9,VALID,0,VALID,97.0308,VALID,0,VALID,19.0218,VALID,114,VALID,0,
2013-01-30, 03:01:05,VALID,918.896,VALID,0,VALID,97.0537,VALID,0,VALID,19.0203,VALID,114,VALID,0,
2013-01-30, 03:02:05,VALID,918.868,VALID,0,VALID,97.0537,VALID,0,VALID,19.0203,VALID,114,VALID,0,
2013-01-30, 03:03:05,VALID,918.883,VALID,0,VALID,97.0537,VALID,0,VALID,19.0218,VALID,114,VALID,0,
2013-01-30, 03:04:05,VALID,918.85,VALID,0,VALID,97.0613,VALID,0,VALID,19.0008,VALID,114,VALID,0,
2013-01-30, 03:05:05,VALID,918.835,VALID,0,VALID,97.0842,VALID,0,VALID,19.0008,VALID,114,VALID,0,
2013-01-30, 03:06:05,VALID,918.834,VALID,0,VALID,97.0461,VALID,0,VALID,18.9828,VALID,114,VALID,0,
2013-01-30, 03:07:05,VALID,918.83,VALID,0,VALID,97.069,VALID,0,VALID,18.9828,VALID,114,VALID,0,
2013-01-30, 03:08:05,VALID,918.811,VALID,0,VALID,97.069,VALID,0,VALID,18.9619,VALID,114,VALID,0,
2013-01-30, 03:09:05,VALID,918.808,VALID,0,VALID,97.0918,VALID,0,VALID,18.9424,VALID,114,VALID,0,
2013-01-30, 03:10:05,VALID,918.821,VALID,0,VALID,97.1071,VALID,0,VALID,19.0023,VALID,110,VALID,0,
2013-01-30, 03:11:05,VALID,918.809,VALID,0,VALID,97.0842,VALID,0,VALID,18.9814,VALID,110,VALID,0,
2013-01-30, 03:12:05,VALID,918.781,VALID,0,VALID,97.1147,VALID,0,VALID,18.9633,VALID,110,VALID,0,
2013-01-30, 03:13:05,VALID,918.802,VALID,0,VALID,97.1147,VALID,0,VALID,18.9633,VALID,110,VALID,0,
2013-01-30, 03:14:05,VALID,918.775,VALID,0,VALID,97.1147,VALID,0,VALID,18.9424,VALID,110,VALID,0,
2013-01-30, 03:15:05,VALID,918.77,VALID,0,VALID,97.1071,VALID,0,VALID,18.9828,VALID,110,VALID,0,
2013-01-30, 03:16:05,VALID,918.779,VALID,0,VALID,97.1223,VALID,0,VALID,18.9424,VALID,110,VALID,0,
2013-01-30, 03:17:05,VALID,918.732,VALID,0,VALID,97.0994,VALID,0,VALID,18.9424,VALID,110,VALID,0,
2013-01-30, 03:18:05,VALID,918.712,VALID,0,VALID,97.1071,VALID,0,VALID,18.9633,VALID,110,VALID,0,
2013-01-30, 03:19:05,VALID,918.714,VALID,0,VALID,97.0842,VALID,0,VALID,18.9229,VALID,117,VALID,0,
2013-01-30, 03:20:05,VALID,918.669,VALID,0,VALID,97.0994,VALID,0,VALID,18.9229,VALID,117,VALID,0,
2013-01-30, 03:21:05,VALID,918.649,VALID,0,VALID,97.0918,VALID,0,VALID,18.9243,VALID,117,VALID,0,
2013-01-30, 03:22:05,VALID,918.677,VALID,0,VALID,97.0918,VALID,0,VALID,18.8644,VALID,117,VALID,0,
2013-01-30, 03:23:05,VALID,918.667,VALID,0,VALID,97.0918,VALID,0,VALID,18.8644,VALID,117,VALID,0,
2013-01-30, 03:24:05,VALID,918.626,VALID,0,VALID,97.0766,VALID,0,VALID,18.8644,VALID,117,VALID,0,
2013-01-30, 03:25:05,VALID,918.626,VALID,0,VALID,97.0918,VALID,0.107441,VALID,18.8449,VALID,117,VALID,0,
2013-01-30, 03:26:05,VALID,918.65,VALID,0,VALID,97.0918,VALID,0,VALID,18.8254,VALID,117,VALID,0,
2013-01-30, 03:27:05,VALID,918.632,VALID,0,VALID,97.0918,VALID,0,VALID,18.8254,VALID,117,VALID,0,
2013-01-30, 03:28:05,VALID,918.626,VALID,0,VALID,97.1147,VALID,0,VALID,18.8449,VALID,129,VALID,0,
2013-01-30, 03:29:05,VALID,918.635,VALID,0,VALID,97.1071,VALID,0,VALID,18.8644,VALID,130,VALID,0,
2013-01-30, 03:30:05,VALID,918.615,VALID,0,VALID,97.1071,VALID,0,VALID,18.8449,VALID,129,VALID,0,
2013-01-30, 03:31:05,VALID,918.633,VALID,0,VALID,97.1147,VALID,0,VALID,18.8658,VALID,127,VALID,0,
2013-01-30, 03:32:05,VALID,918.62,VALID,0,VALID,97.1223,VALID,0,VALID,18.8254,VALID,126,VALID,0,
2013-01-30, 03:33:05,VALID,918.603,VALID,0,VALID,97.1299,VALID,0,VALID,18.8672,VALID,127,VALID,0,
2013-01-30, 03:34:05,VALID,918.602,VALID,0,VALID,97.1604,VALID,0,VALID,18.8463,VALID,127,VALID,0,
2013-01-30, 03:35:05,VALID,918.617,VALID,0,VALID,97.1452,VALID,0,VALID,18.8477,VALID,127,VALID,0,
2013-01-30, 03:36:05,VALID,918.632,VALID,0,VALID,97.1833,VALID,0,VALID,18.8867,VALID,127,VALID,0,
2013-01-30, 03:37:05,VALID,918.596,VALID,0,VALID,97.1833,VALID,0,VALID,18.8658,VALID,129,VALID,0,
2013-01-30, 03:38:05,VALID,918.608,VALID,0,VALID,97.1681,VALID,0,VALID,18.8463,VALID,129,VALID,0,
2013-01-30, 03:39:05,VALID,918.603,VALID,0,VALID,97.1681,VALID,0,VALID,18.7683,VALID,129,VALID,0,
2013-01-30, 03:40:05,VALID,918.611,VALID,0,VALID,97.1528,VALID,0,VALID,18.7697,VALID,129,VALID,0,
2013-01-30, 03:41:05,VALID,918.608,VALID,0,VALID,97.1376,VALID,0,VALID,18.7293,VALID,129,VALID,0,
2013-01-30, 03:42:05,VALID,918.609,VALID,0,VALID,97.1528,VALID,0,VALID,18.7878,VALID,129,VALID,0,
2013-01-30, 03:43:05,VALID,918.613,VALID,0,VALID,97.1528,VALID,0,VALID,18.8268,VALID,129,VALID,0,
2013-01-30, 03:44:05,VALID,918.602,VALID,0,VALID,97.1909,VALID,0,VALID,18.8268,VALID,129,VALID,0,
2013-01-30, 03:45:05,VALID,918.611,VALID,0,VALID,97.1604,VALID,0,VALID,18.8477,VALID,129,VALID,0,
2013-01-30, 03:46:05,VALID,918.6,VALID,0,VALID,97.1681,VALID,0,VALID,18.8477,VALID,129,VALID,0,
2013-01-30, 03:47:05,VALID,918.607,VALID,0,VALID,97.1909,VALID,0,VALID,18.8282,VALID,129,VALID,0,
2013-01-30, 03:48:05,VALID,918.599,VALID,0,VALID,97.1986,VALID,0,VALID,18.7864,VALID,129,VALID,0,
2013-01-30, 03:49:05,VALID,918.637,VALID,0,VALID,97.1681,VALID,0,VALID,18.7683,VALID,129,VALID,0,
2013-01-30, 03:50:05,VALID,918.624,VALID,0,VALID,97.1833,VALID,0,VALID,18.7683,VALID,129,VALID,0,
2013-01-30, 03:51:05,VALID,918.618,VALID,0,VALID,97.1909,VALID,0,VALID,18.7683,VALID,129,VALID,0,
2013-01-30, 03:52:05,VALID,918.614,VALID,0,VALID,97.1909,VALID,0,VALID,18.7878,VALID,129,VALID,0,
2013-01-30, 03:53:05,VALID,918.591,VALID,0,VALID,97.1833,VALID,0.107441,VALID,18.7864,VALID,129,VALID,0,
2013-01-30, 03:54:05,VALID,918.56,VALID,0,VALID,97.1909,VALID,0,VALID,18.8073,VALID,129,VALID,0,
2013-01-30, 03:55:05,VALID,918.557,VALID,0,VALID,97.1986,VALID,0,VALID,18.8268,VALID,128,VALID,0,
2013-01-30, 03:56:05,VALID,918.544,VALID,0,VALID,97.1986,VALID,0,VALID,18.7878,VALID,129,VALID,0,
2013-01-30, 03:57:05,VALID,918.535,VALID,0,VALID,97.2062,VALID,0,VALID,18.7878,VALID,129,VALID,0,